Location: San Gennaro Vesuviano
(40.8833°N, 14.5333°E)
Time: 20:51:41
(UTC+00:00)

ERS-1 Rocket - Pass Details

Date: 22 April 2021
Orbit: 753 x 758 km, 98.4° (Epoch: 10 May)

Event Time Altitude Azimuth Distance (km) Brightness Sun altitude
Exits shadow 19:53:53 29° 74° (ENE) 1,348 4.0 -21.5°
Maximum altitude 19:54:10 30° 67° (ENE) 1,343 4.0 -21.5°
Drops below altitude 10° 19:58:29 10° 8° (N) 2,285 5.9 -22.1°
Sets 20:01:01 0° 358° (N) 3,214 6.9 -22.5°
